Hourly Data Report for January 26, 2017

TORONTO CITY
ONTARIO

43°40'00.000" N
79°24'00.000" W
112.50 m
6158355
71508
XTO

Download Data

Hourly Data (January 2017)
Hourly Data Report for January 26, 2017
TIME
LST
Temp Definition
°C
Dew Point Definition
°C
Rel Hum Definition
%
Precip. Amount Definition
mm

Wind Dir Definition
10's deg

Wind Spd Definition
km/h
Visibility Definition
km
Stn Press Definition
kPa
Hmdx Definition


Wind Chill Definition


Weather Definition


00:00 3.6 2.9 96 1.6 LegendMM LegendMM   98.17     LegendNANA
01:00 3.7 3.0 96 0.5 LegendMM LegendMM   98.12     LegendNANA
02:00 3.8 3.2 96 0.0 LegendMM LegendMM   98.11     LegendNANA
03:00 3.8 3.2 96 0.0 LegendMM LegendMM   98.13     LegendNANA
04:00 4.4 3.6 95 0.0 LegendMM LegendMM   98.06     LegendNANA
05:00 4.3 3.1 92 0.0 LegendMM LegendMM   98.03     LegendNANA
06:00 4.4 2.3 86 0.0 LegendMM LegendMM   98.02     LegendNANA
07:00 4.7 2.7 87 0.0 LegendMM LegendMM   98.03     LegendNANA
08:00 3.4 1.4 87 0.4 LegendMM LegendMM   98.04     LegendNANA
09:00 3.3 2.1 91 0.8 LegendMM LegendMM   98.05     LegendNANA
10:00 3.3 1.2 86 0.2 LegendMM LegendMM   98.07     LegendNANA
11:00 3.2 0.9 85 0.2 LegendMM LegendMM   98.09     LegendNANA
12:00 3.2 1.5 89 0.3 LegendMM LegendMM   98.09     LegendNANA
13:00 3.2 0.4 82 0.0 LegendMM LegendMM   98.12     LegendNANA
14:00 3.7 0.1 77 0.2 LegendMM LegendMM   98.19     LegendNANA
15:00 3.6 -1.2 71 0.0 LegendMM LegendMM   98.32     LegendNANA
16:00 3.9 -1.0 71 0.0 LegendMM LegendMM   98.44     LegendNANA
17:00 3.8 -1.3 70 0.0 LegendMM LegendMM   98.54     LegendNANA
18:00 3.3 -1.1 73 0.0 LegendMM LegendMM   98.61     LegendNANA
19:00 3.2 -1.1 73 0.0 LegendMM LegendMM   98.67     LegendNANA
20:00 3.1 -1.1 74 0.0 LegendMM LegendMM   98.71     LegendNANA
21:00 2.7 -0.4 80 0.0 LegendMM LegendMM   98.74     LegendNANA
22:00 2.7 -1.0 77 0.0 LegendMM LegendMM   98.78     LegendNANA
23:00 2.7 -2.6 68 0.0 LegendMM LegendMM   98.82     LegendNANA

Notes on Data Quality.

Legend

  • E = Estimated
  • M = Missing
  • NA = Not Available*
  • [empty] = Indicates an unobserved value
Date modified: